Regional Weather Roundup
Issued by NWS Goodland, KS

Home | Current Version | Previous Version | Text Only | Print | Product List | Glossary Off
Versions: 1 2 3 4 5 6 7 8 9 10 11 12 13 14 15 16 17 18 19 20 21 22 23 24 25 26 27 28 29 30 31 32 33 34 35 36 37 38 39 40 41 42 43 44 45 46 47 48 49 50

000
ASUS43 KGLD 230659
RWRGLD

GOODLAND FORECAST AREA HOURLY WEATHER ROUNDUP
NATIONAL WEATHER SERVICE GOODLAND KS
100 AM MDT TUE SEP 23 2014

...OFFICIAL OBSERVATIONS...

CITY           SKY/WX    TMP DP  RH WIND       PRES   REMARKS
GOODLAND KS    CLOUDY    58  56  93 S22G31    30.09R
HILL CITY KS   LGT RAIN  59  55  87 N12       30.18R
IMPERIAL NEB   CLOUDY    60  54  80 SW8       30.05R
MCCOOK NEB     LGT RAIN  60  57  89 S22G32    30.03F
AKRON CO       CLOUDY    59  57  93 W12       30.08F
BURLINGTON CO  CLOUDY    58  56  93 SE9       30.11R
LIMON CO       PTCLDY    55  53  93 NW5       30.16R
$$

...UNOFFICIAL OBSERVATIONS...

CITY           SKY/WX    TMP DP  RH WIND       PRES   REMARKS
COLBY KS       LGT RAIN  59  59 100 E22       30.09F
GOVE KS          N/A     61  32  33 MISG        N/A
NORTON KS      RAIN      57  54  88 SE7       30.11F
SHARON SPRINGS   N/A     65  55  69 CALM        N/A
WAKEENEY KS      N/A     60  50  70 MISG        N/A
KIT CARSON CO    N/A     63  56  77 CALM        N/A
YUMA CO          N/A     57  53  88 CALM        N/A
$$


USA.gov is the U.S. government's official web portal to all federal, state and local government web resources and services.